Location: Alvediston
(51.0078°N, 2.0364°W)
Time: 20:51:51
(UTC+00:00)

Cosmos 2263 Rocket - Pass Details

Date: 27 February 2020
Orbit: 822 x 850 km, 71.0° (Epoch: 29 March)

Event Time Altitude Azimuth Distance (km) Brightness Sun altitude
Rises 22:18:49 0° 328° (NNW) 3,419 6.2 -40.4°
Reaches altitude 10° 22:21:16 10° 326° (NNW) 2,482 5.3 -40.7°
Enters shadow 22:23:14 22° 323° (NW) 1,764 4.3 -40.9°
